Regional Weather Roundup
Issued by NWS Albany, NY

Home | Current Version | Previous Version | Graphics & Text | Print | Product List | Glossary Off
Versions: 1 2 3 4 5 6 7 8 9 10 11 12 13 14 15 16 17 18 19 20 21 22 23 24 25 26 27 28 29 30 31 32 33 34 35 36 37 38 39 40 41 42 43 44 45 46 47 48 49 50

000
ASUS41 KALY 230910
RWRALY

NEW YORK STATE HOURLY WEATHER ROUNDUP
NATIONAL WEATHER SERVICE ALBANY NY
500 AM EDT TUE SEP 23 2014

NOTE: "FAIR" INDICATES FEW OR NO CLOUDS BELOW 12,000 FEET WITH NO
SIGNIFICANT WEATHER AND/OR NO OBSTRUCTIONS TO VISIBILITY.

NYZ032-033-038>043-046>054-057>066-NYZ062>081-231000-
EAST


CITY           SKY/WX    TMP DP  RH WIND       PRES   REMARKS
ALBANY         CLEAR     46  42  86 CALM      30.23R
GLENS FALLS    CLEAR     37  35  92 CALM      30.22R
POUGHKEEPSIE   CLEAR     40  38  93 CALM      30.23R
NEWBURGH       CLEAR     45  41  87 SW7       30.24
MONTGOMERY     CLEAR     41  38  89 SW3       30.23R
WHITE PLAINS   CLEAR     45  39  79 NW5       30.22R
ISLIP          PTCLDY    47  41  80 N3        30.20R
NEW YORK CITY  PTCLDY    54  41  61 N10       30.22R
CENTRAL PARK   CLEAR     53  39  59 NW3       30.25R
$$

NYZ005>009-017-018-044>046-055-056-231000-
CENTRAL


CITY           SKY/WX    TMP DP  RH WIND       PRES   REMARKS
FULTON         PTCLDY    44  41  89 S5        30.24R
SYRACUSE       PTCLDY    48  42  80 W9        30.24R
ROME           CLEAR     40  39  97 E5        30.25R
ELMIRA         CLOUDY    34  34 100 CALM      30.28R FOG
BINGHAMTON     CLEAR     42  39  89 CALM      30.24R
MONTICELLO     CLEAR     39  37  93 W3        30.24R
$$

NYZ026>034-041>043-231000-
NORTH


CITY           SKY/WX    TMP DP  RH WIND       PRES   REMARKS
WATERTOWN      PTCLDY    48  41  76 S5        30.21R
FORT DRUM      NOT AVBL
MASSENA        CLOUDY    46  43  89 SW10      30.17S
SARANAC LAKE   CLOUDY    38  37  97 CALM      30.16R
PLATTSBURGH    CLOUDY    46  40  79 CALM      30.17R
$$

NYZ001>004-010>016-019>021-231000-
WEST


CITY           SKY/WX    TMP DP  RH WIND       PRES   REMARKS
NIAGARA FALLS  CLEAR     48  40  73 W3        30.25S
BUFFALO        PTCLDY    46  41  82 S7        30.26R
DUNKIRK        CLEAR     48  42  80 S9        30.28R
JAMESTOWN      CLOUDY    39  37  93 S3        30.29R VSB 1/2
WELLSVILLE     CLEAR     41  38  89 W5        30.28R
ROCHESTER      CLOUDY    44  42  93 SW5       30.25S
PENN YAN       CLEAR     46  43  89 S7        30.26R
$$

             KEY
       WCI = WIND CHILL INDEX
       VSB = VISIBILITY
       HX  = HEAT INDEX
$$


USA.gov is the U.S. government's official web portal to all federal, state and local government web resources and services.